Time,TemperatureF,DewpointF,PressureIn,WindDirection,WindDirectionDegrees,WindSpeedMPH,WindSpeedGustMPH,Humidity,HourlyPrecipIn,Conditions,Clouds,dailyrainin,SolarRadiationWatts/m^2,SoftwareType,DateUTC
2013-05-26 00:00:00,39.7,37.0,29.68,North,355,5.0,10.0,90,0.00,,RA,0.00,0.00,VWS V14.01,2013-05-26 04:00:00,
2013-05-26 00:01:00,39.6,36.9,29.68,NW,310,4.0,13.0,90,0.00,,-RA,0.00,0.00,VWS V14.01,2013-05-26 04:01:00,
2013-05-26 00:02:00,39.6,36.9,29.68,NW,304,2.0,13.0,90,0.00,,-RA,0.00,0.00,VWS V14.01,2013-05-26 04:02:00,
2013-05-26 00:04:00,39.5,36.8,29.68,North,355,5.0,15.0,90,0.00,,-RA,0.00,0.00,VWS V14.01,2013-05-26 04:04:00,
2013-05-26 00:05:00,39.6,36.9,29.68,NW,321,5.0,13.0,90,0.00,,RA,0.00,0.00,VWS V14.01,2013-05-26 04:05:00,
2013-05-26 00:09:00,39.5,36.8,29.68,WNW,303,4.0,11.0,90,0.00,,-RA,0.00,0.00,VWS V14.01,2013-05-26 04:09:00,
2013-05-26 00:10:00,39.5,36.8,29.68,NNW,337,7.0,15.0,90,0.00,,RA,0.00,0.00,VWS V14.01,2013-05-26 04:10:00,
2013-05-26 00:15:00,39.4,36.7,29.68,WNW,293,6.0,12.0,90,0.00,,-RA,0.00,0.00,VWS V14.01,2013-05-26 04:15:00,
2013-05-26 00:20:00,39.3,36.6,29.68,NW,315,8.0,16.0,90,0.00,,-RA,0.00,0.00,VWS V14.01,2013-05-26 04:20:00,
2013-05-26 00:25:00,39.3,36.6,29.68,NW,325,8.0,12.0,90,0.00,,-RA,0.00,0.00,VWS V14.01,2013-05-26 04:25:00,
2013-05-26 00:30:00,39.2,36.5,29.68,West,269,8.0,13.0,90,0.00,,-RA,0.00,0.00,VWS V14.01,2013-05-26 04:30:00,
2013-05-26 00:35:00,39.2,36.5,29.68,NW,312,8.0,9.0,90,0.00,,-RA,0.00,0.00,VWS V14.01,2013-05-26 04:35:00,
2013-05-26 00:40:00,39.2,36.5,29.68,WNW,294,11.0,14.0,90,0.00,,-RA,0.00,0.00,VWS V14.01,2013-05-26 04:40:00,
2013-05-26 00:45:00,39.3,36.6,29.68,NW,313,9.0,10.0,90,0.00,,-RA,0.00,0.00,VWS V14.01,2013-05-26 04:45:00,
2013-05-26 00:50:00,39.2,36.5,29.67,WNW,294,4.0,10.0,90,0.00,,-RA,0.00,0.00,VWS V14.01,2013-05-26 04:50:00,
2013-05-26 00:55:00,39.1,36.4,29.67,NW,313,4.0,13.0,90,0.00,,-RA,0.00,0.00,VWS V14.01,2013-05-26 04:55:00,
2013-05-26 01:00:00,39.0,36.3,29.67,WNW,298,7.0,9.0,90,0.00,,-RA,0.00,0.00,VWS V14.01,2013-05-26 05:00:00,
2013-05-26 01:05:00,39.0,36.0,29.67,WNW,301,5.0,10.0,89,0.00,,-RA,0.00,0.00,VWS V14.01,2013-05-26 05:05:00,
2013-05-26 01:10:00,38.9,35.9,29.67,NW,311,13.0,13.0,89,0.00,,-RA,0.00,0.00,VWS V14.01,2013-05-26 05:10:00,
2013-05-26 01:15:00,38.9,35.9,29.67,West,267,6.0,10.0,89,0.00,,-RA,0.00,0.00,VWS V14.01,2013-05-26 05:15:00,
2013-05-26 01:20:00,38.9,35.9,29.67,NW,306,3.0,10.0,89,0.00,,-RA,0.00,0.00,VWS V14.01,2013-05-26 05:20:00,
2013-05-26 01:25:00,38.9,35.9,29.67,West,261,6.0,8.0,89,0.00,,-RA,0.00,0.00,VWS V14.01,2013-05-26 05:25:00,
2013-05-26 01:30:00,38.9,36.2,29.67,WNW,296,4.0,8.0,90,0.00,,-RA,0.00,0.00,VWS V14.01,2013-05-26 05:30:00,
2013-05-26 01:35:00,38.9,36.2,29.67,NW,321,7.0,8.0,90,0.00,,-RA,0.00,0.00,VWS V14.01,2013-05-26 05:35:00,
2013-05-26 01:40:00,38.8,36.1,29.67,West,277,5.0,8.0,90,0.00,,RA,0.00,0.00,VWS V14.01,2013-05-26 05:40:00,
2013-05-26 01:41:00,38.8,36.1,29.67,WNW,300,8.0,11.0,90,0.00,,-RA,0.00,0.00,VWS V14.01,2013-05-26 05:41:00,
2013-05-26 01:45:00,38.8,36.1,29.67,WNW,293,5.0,11.0,90,0.00,,RA,0.00,0.00,VWS V14.01,2013-05-26 05:45:00,
2013-05-26 01:46:00,38.7,36.3,29.66,NW,304,2.0,6.0,91,0.00,,-RA,0.00,0.00,VWS V14.01,2013-05-26 05:46:00,
2013-05-26 01:50:00,38.7,36.3,29.67,NW,316,5.0,6.0,91,0.00,,RA,0.00,0.00,VWS V14.01,2013-05-26 05:50:00,
2013-05-26 01:51:00,38.6,36.2,29.66,WNW,286,6.0,10.0,91,0.00,,-RA,0.00,0.00,VWS V14.01,2013-05-26 05:51:00,
2013-05-26 01:55:00,38.7,36.3,29.66,West,271,4.0,10.0,91,0.00,,RA,0.00,0.00,VWS V14.01,2013-05-26 05:55:00,
2013-05-26 01:56:00,38.6,36.2,29.66,WNW,302,4.0,8.0,91,0.00,,-RA,0.00,0.00,VWS V14.01,2013-05-26 05:56:00,
2013-05-26 02:00:00,38.6,36.2,29.66,NW,309,4.0,10.0,91,0.00,,RA,0.00,0.00,VWS V14.01,2013-05-26 06:00:00,
2013-05-26 02:01:00,38.6,36.2,29.66,NNW,331,5.0,11.0,91,0.00,,-RA,0.00,0.00,VWS V14.01,2013-05-26 06:01:00,
2013-05-26 02:05:00,38.6,36.2,29.66,NW,325,2.0,11.0,91,0.00,,RA,0.00,0.00,VWS V14.01,2013-05-26 06:05:00,
2013-05-26 02:06:00,38.6,36.2,29.66,WNW,290,4.0,7.0,91,0.00,,-RA,0.00,0.00,VWS V14.01,2013-05-26 06:06:00,
2013-05-26 02:10:00,38.6,36.2,29.66,NW,310,10.0,12.0,91,0.00,,RA,0.00,0.00,VWS V14.01,2013-05-26 06:10:00,
2013-05-26 02:11:00,38.6,36.2,29.66,WNW,285,3.0,10.0,91,0.00,,-RA,0.00,0.00,VWS V14.01,2013-05-26 06:11:00,
2013-05-26 02:15:00,38.6,36.2,29.66,SW,235,9.0,11.0,91,0.00,,RA,0.00,0.00,VWS V14.01,2013-05-26 06:15:00,
2013-05-26 02:16:00,38.6,36.2,29.66,NW,311,7.0,9.0,91,0.00,,-RA,0.00,0.00,VWS V14.01,2013-05-26 06:16:00,
2013-05-26 02:20:00,38.5,36.1,29.66,NW,324,6.0,10.0,91,0.00,,RA,0.00,0.00,VWS V14.01,2013-05-26 06:20:00,
2013-05-26 02:21:00,38.5,36.1,29.66,WNW,290,6.0,11.0,91,0.00,,-RA,0.00,0.00,VWS V14.01,2013-05-26 06:21:00,
2013-05-26 02:25:00,38.5,36.1,29.66,WNW,286,8.0,11.0,91,0.00,,RA,0.00,0.00,VWS V14.01,2013-05-26 06:25:00,
2013-05-26 02:26:00,38.5,36.1,29.66,NW,306,3.0,8.0,91,0.00,,-RA,0.00,0.00,VWS V14.01,2013-05-26 06:26:00,
2013-05-26 02:30:00,38.5,36.1,29.66,WNW,292,5.0,8.0,91,0.00,,RA,0.00,0.00,VWS V14.01,2013-05-26 06:30:00,
2013-05-26 02:31:00,38.4,36.0,29.66,NW,304,4.0,9.0,91,0.00,,-RA,0.00,0.00,VWS V14.01,2013-05-26 06:31:00,
2013-05-26 02:35:00,38.4,36.0,29.66,West,280,4.0,9.0,91,0.00,,RA,0.00,0.00,VWS V14.01,2013-05-26 06:35:00,
2013-05-26 02:36:00,38.4,36.0,29.65,West,270,3.0,10.0,91,0.00,,-RA,0.00,0.00,VWS V14.01,2013-05-26 06:36:00,
2013-05-26 02:40:00,38.4,36.0,29.66,West,277,6.0,10.0,91,0.00,,RA,0.00,0.00,VWS V14.01,2013-05-26 06:40:00,
2013-05-26 02:41:00,38.3,36.2,29.66,WNW,286,6.0,8.0,92,0.00,,-RA,0.00,0.00,VWS V14.01,2013-05-26 06:41:00,
2013-05-26 02:45:00,38.4,36.3,29.66,West,265,5.0,10.0,92,0.00,,RA,0.00,0.00,VWS V14.01,2013-05-26 06:45:00,
2013-05-26 02:46:00,38.3,36.2,29.66,WNW,299,5.0,8.0,92,0.00,,-RA,0.00,0.00,VWS V14.01,2013-05-26 06:46:00,
2013-05-26 02:50:00,38.3,36.2,29.66,WNW,301,8.0,8.0,92,0.00,,RA,0.00,0.00,VWS V14.01,2013-05-26 06:50:00,
2013-05-26 02:51:00,38.2,36.1,29.66,West,273,4.0,10.0,92,0.00,,-RA,0.00,0.00,VWS V14.01,2013-05-26 06:51:00,
2013-05-26 02:55:00,38.2,36.1,29.66,WNW,297,5.0,10.0,92,0.00,,RA,0.00,0.00,VWS V14.01,2013-05-26 06:55:00,
2013-05-26 02:56:00,38.2,36.1,29.66,WSW,254,9.0,9.0,92,0.00,,-RA,0.00,0.00,VWS V14.01,2013-05-26 06:56:00,
2013-05-26 03:00:00,38.2,36.1,29.65,West,270,8.0,9.0,92,0.00,,RA,0.00,0.00,VWS V14.01,2013-05-26 07:00:00,
2013-05-26 03:01:00,38.2,36.1,29.67,West,275,6.0,10.0,92,0.00,,-RA,0.00,0.00,VWS V14.01,2013-05-26 07:01:00,
2013-05-26 03:05:00,38.2,36.1,29.67,WNW,290,9.0,11.0,92,0.00,,RA,0.00,0.00,VWS V14.01,2013-05-26 07:05:00,
2013-05-26 03:06:00,38.2,36.1,29.67,WNW,290,3.0,9.0,92,0.00,,-RA,0.00,0.00,VWS V14.01,2013-05-26 07:06:00,
2013-05-26 03:10:00,38.2,36.1,29.67,NW,306,8.0,9.0,92,0.00,,RA,0.00,0.00,VWS V14.01,2013-05-26 07:10:00,
2013-05-26 03:12:00,38.2,36.1,29.66,West,263,6.0,11.0,92,0.00,,-RA,0.00,0.00,VWS V14.01,2013-05-26 07:12:00,
2013-05-26 03:15:00,38.2,36.1,29.66,West,281,4.0,11.0,92,0.00,,RA,0.00,0.00,VWS V14.01,2013-05-26 07:15:00,
2013-05-26 03:17:00,38.2,36.1,29.66,WNW,293,5.0,10.0,92,0.00,,-RA,0.00,0.00,VWS V14.01,2013-05-26 07:17:00,
2013-05-26 03:20:00,38.2,36.1,29.66,NW,304,3.0,10.0,92,0.00,,RA,0.00,0.00,VWS V14.01,2013-05-26 07:20:00,
2013-05-26 03:22:00,38.2,36.1,29.66,WNW,288,2.0,11.0,92,0.00,,-RA,0.00,0.00,VWS V14.01,2013-05-26 07:22:00,
2013-05-26 03:25:00,38.2,36.1,29.66,NW,306,3.0,11.0,92,0.00,,RA,0.00,0.00,VWS V14.01,2013-05-26 07:25:00,
2013-05-26 03:27:00,38.2,36.1,29.66,West,271,0.0,8.0,92,0.00,,-RA,0.00,0.00,VWS V14.01,2013-05-26 07:27:00,
2013-05-26 03:30:00,38.2,36.1,29.66,West,264,7.0,8.0,92,0.00,,RA,0.00,0.00,VWS V14.01,2013-05-26 07:30:00,
2013-05-26 03:32:00,38.2,36.1,29.65,WNW,298,6.0,9.0,92,0.00,,-RA,0.00,0.00,VWS V14.01,2013-05-26 07:32:00,
2013-05-26 03:35:00,38.2,36.1,29.65,NW,305,5.0,9.0,92,0.00,,RA,0.00,0.00,VWS V14.01,2013-05-26 07:35:00,
2013-05-26 03:37:00,38.2,36.1,29.66,WSW,252,8.0,10.0,92,0.00,,-RA,0.00,0.00,VWS V14.01,2013-05-26 07:37:00,
2013-05-26 03:40:00,38.2,36.1,29.66,WNW,283,9.0,10.0,92,0.00,,RA,0.00,0.00,VWS V14.01,2013-05-26 07:40:00,
2013-05-26 03:42:00,38.1,36.0,29.65,WNW,297,7.0,12.0,92,0.00,,-RA,0.00,0.00,VWS V14.01,2013-05-26 07:42:00,
2013-05-26 03:45:00,38.1,36.0,29.65,WNW,284,8.0,12.0,92,0.00,,RA,0.00,0.00,VWS V14.01,2013-05-26 07:45:00,
2013-05-26 03:47:00,38.1,36.0,29.66,West,281,4.0,10.0,92,0.00,,-RA,0.00,0.00,VWS V14.01,2013-05-26 07:47:00,
2013-05-26 03:50:00,38.1,36.0,29.66,West,279,5.0,10.0,92,0.00,,RA,0.00,0.00,VWS V14.01,2013-05-26 07:50:00,
2013-05-26 03:52:00,38.1,36.0,29.66,WNW,300,3.0,7.0,92,0.00,,-RA,0.00,0.00,VWS V14.01,2013-05-26 07:52:00,
2013-05-26 03:55:00,38.1,36.0,29.66,WNW,282,4.0,7.0,92,0.00,,RA,0.00,0.00,VWS V14.01,2013-05-26 07:55:00,
2013-05-26 03:57:00,38.1,36.0,29.66,West,278,5.0,10.0,92,0.00,,-RA,0.00,0.00,VWS V14.01,2013-05-26 07:57:00,
2013-05-26 04:00:00,38.1,36.0,29.66,West,276,4.0,10.0,92,0.00,,RA,0.00,0.00,VWS V14.01,2013-05-26 08:00:00,
2013-05-26 04:02:00,38.1,36.3,29.66,NW,319,6.0,11.0,93,0.00,,-RA,0.00,0.00,VWS V14.01,2013-05-26 08:02:00,
2013-05-26 04:05:00,38.1,36.3,29.66,WNW,303,3.0,11.0,93,0.00,,RA,0.00,0.00,VWS V14.01,2013-05-26 08:05:00,
2013-05-26 04:07:00,38.1,36.0,29.66,West,279,5.0,10.0,92,0.00,,-RA,0.00,0.00,VWS V14.01,2013-05-26 08:07:00,
2013-05-26 04:10:00,38.1,36.0,29.66,WNW,288,3.0,10.0,92,0.00,,RA,0.00,0.00,VWS V14.01,2013-05-26 08:10:00,
2013-05-26 04:12:00,38.1,36.3,29.66,West,281,2.0,9.0,93,0.00,,-RA,0.00,0.00,VWS V14.01,2013-05-26 08:12:00,
2013-05-26 04:15:00,38.1,36.3,29.66,West,281,1.0,9.0,93,0.00,,RA,0.00,0.00,VWS V14.01,2013-05-26 08:15:00,
2013-05-26 04:17:00,38.1,36.3,29.66,WNW,291,1.0,8.0,93,0.00,,-RA,0.00,0.00,VWS V14.01,2013-05-26 08:17:00,
2013-05-26 04:20:00,38.1,36.3,29.66,WNW,291,1.0,8.0,93,0.00,,RA,0.00,0.00,VWS V14.01,2013-05-26 08:20:00,
2013-05-26 04:22:00,38.0,36.2,29.66,West,281,3.0,8.0,93,0.00,,-RA,0.00,0.00,VWS V14.01,2013-05-26 08:22:00,
2013-05-26 04:25:00,38.0,36.2,29.66,West,281,3.0,8.0,93,0.00,,RA,0.00,0.00,VWS V14.01,2013-05-26 08:25:00,
2013-05-26 04:27:00,38.0,36.2,29.66,WNW,290,2.0,9.0,93,0.00,,-RA,0.00,0.00,VWS V14.01,2013-05-26 08:27:00,
2013-05-26 04:30:00,38.0,36.2,29.66,WNW,290,2.0,9.0,93,0.00,,RA,0.00,0.00,VWS V14.01,2013-05-26 08:30:00,
2013-05-26 04:32:00,38.1,36.3,29.66,WNW,298,3.0,6.0,93,0.00,,-RA,0.00,0.00,VWS V14.01,2013-05-26 08:32:00,
2013-05-26 04:35:00,38.1,36.3,29.66,WNW,302,6.0,11.0,93,0.00,,RA,0.00,0.00,VWS V14.01,2013-05-26 08:35:00,
2013-05-26 04:38:00,38.1,36.3,29.66,West,279,5.0,6.0,93,0.00,,-RA,0.00,0.00,VWS V14.01,2013-05-26 08:38:00,
2013-05-26 04:40:00,38.1,36.3,29.66,WNW,283,5.0,10.0,93,0.00,,RA,0.00,0.00,VWS V14.01,2013-05-26 08:40:00,
2013-05-26 04:43:00,38.1,36.3,29.66,West,274,3.0,4.0,93,0.00,,-RA,0.00,0.00,VWS V14.01,2013-05-26 08:43:00,
2013-05-26 04:45:00,38.1,36.3,29.66,West,274,4.0,8.0,93,0.00,,RA,0.00,0.00,VWS V14.01,2013-05-26 08:45:00,
2013-05-26 04:48:00,38.2,36.4,29.66,WNW,301,6.0,6.0,93,0.00,,-RA,0.00,0.00,VWS V14.01,2013-05-26 08:48:00,
2013-05-26 04:50:00,38.2,36.4,29.66,NW,316,3.0,12.0,93,0.00,,RA,0.00,0.00,VWS V14.01,2013-05-26 08:50:00,
2013-05-26 04:53:00,38.2,36.4,29.66,West,261,5.0,5.0,93,0.00,,-RA,0.00,0.00,VWS V14.01,2013-05-26 08:53:00,
2013-05-26 04:55:00,38.3,36.5,29.66,West,273,2.0,12.0,93,0.00,,RA,0.00,0.00,VWS V14.01,2013-05-26 08:55:00,
2013-05-26 04:58:00,38.3,36.5,29.66,West,281,2.0,6.0,93,0.00,,-RA,0.00,0.00,VWS V14.01,2013-05-26 08:58:00,
2013-05-26 05:00:00,38.3,36.5,29.66,WNW,302,3.0,6.0,93,0.00,,RA,0.00,0.00,VWS V14.01,2013-05-26 09:00:00,
2013-05-26 05:03:00,38.3,36.5,29.66,WNW,296,4.0,6.0,93,0.00,,-RA,0.00,0.00,VWS V14.01,2013-05-26 09:03:00,
2013-05-26 05:05:00,38.3,36.5,29.66,West,275,5.0,7.0,93,0.00,,RA,0.00,0.00,VWS V14.01,2013-05-26 09:05:00,
2013-05-26 05:08:00,38.4,36.6,29.67,West,271,7.0,7.0,93,0.00,,-RA,0.00,0.00,VWS V14.01,2013-05-26 09:08:00,
2013-05-26 05:10:00,38.4,36.6,29.66,NW,304,5.0,8.0,93,0.00,,RA,0.00,0.00,VWS V14.01,2013-05-26 09:10:00,
2013-05-26 05:13:00,38.4,36.6,29.67,NW,321,5.0,5.0,93,0.00,,-RA,0.00,0.00,VWS V14.01,2013-05-26 09:13:00,
2013-05-26 05:15:00,38.4,36.6,29.67,West,263,4.0,9.0,93,0.00,,RA,0.00,0.00,VWS V14.01,2013-05-26 09:15:00,
2013-05-26 05:18:00,38.5,36.7,29.67,NW,316,12.0,12.0,93,0.00,,-RA,0.00,0.00,VWS V14.01,2013-05-26 09:18:00,
2013-05-26 05:20:00,38.5,36.7,29.67,NW,305,4.0,8.0,93,0.00,,RA,0.00,0.00,VWS V14.01,2013-05-26 09:20:00,
2013-05-26 05:23:00,38.5,36.7,29.67,WNW,287,4.0,7.0,93,0.00,,-RA,0.00,0.00,VWS V14.01,2013-05-26 09:23:00,
2013-05-26 05:25:00,38.5,36.7,29.67,WNW,298,2.0,12.0,93,0.00,,RA,0.00,0.00,VWS V14.01,2013-05-26 09:25:00,
2013-05-26 05:28:00,38.6,36.8,29.67,WNW,302,4.0,6.0,93,0.00,,-RA,0.00,0.00,VWS V14.01,2013-05-26 09:28:00,
2013-05-26 05:30:00,38.6,36.8,29.67,WNW,290,6.0,9.0,93,0.00,,RA,0.00,0.00,VWS V14.01,2013-05-26 09:30:00,
2013-05-26 05:33:00,38.6,36.8,29.67,NW,310,4.0,8.0,93,0.00,,-RA,0.00,0.00,VWS V14.01,2013-05-26 09:33:00,
2013-05-26 05:35:00,38.6,36.8,29.67,WNW,291,6.0,10.0,93,0.00,,RA,0.00,0.00,VWS V14.01,2013-05-26 09:35:00,
2013-05-26 05:38:00,38.7,36.6,29.68,WNW,300,6.0,7.0,92,0.00,,-RA,0.00,5.00,VWS V14.01,2013-05-26 09:38:00,
2013-05-26 05:40:00,38.7,36.6,29.68,WNW,298,7.0,12.0,92,0.00,,RA,0.00,5.00,VWS V14.01,2013-05-26 09:40:00,
2013-05-26 05:43:00,38.8,36.7,29.68,NNW,334,3.0,7.0,92,0.00,,-RA,0.00,9.00,VWS V14.01,2013-05-26 09:43:00,
2013-05-26 05:45:00,38.8,36.7,29.68,WNW,294,2.0,10.0,92,0.00,,RA,0.00,9.00,VWS V14.01,2013-05-26 09:45:00,
2013-05-26 05:48:00,38.8,36.7,29.68,NW,311,5.0,9.0,92,0.00,,-RA,0.00,14.00,VWS V14.01,2013-05-26 09:48:00,
2013-05-26 05:50:00,38.8,36.7,29.67,WNW,293,6.0,14.0,92,0.00,,RA,0.00,12.00,VWS V14.01,2013-05-26 09:50:00,
2013-05-26 05:53:00,39.0,36.9,29.68,WNW,290,6.0,8.0,92,0.00,,-RA,0.00,21.00,VWS V14.01,2013-05-26 09:53:00,
2013-05-26 05:55:00,38.9,36.8,29.67,WNW,292,8.0,11.0,92,0.00,,RA,0.00,19.00,VWS V14.01,2013-05-26 09:55:00,
2013-05-26 05:58:00,39.0,36.9,29.68,NW,318,7.0,8.0,92,0.00,,-RA,0.00,28.00,VWS V14.01,2013-05-26 09:58:00,
2013-05-26 06:00:00,39.0,36.9,29.68,WNW,292,4.0,16.0,92,0.00,,RA,0.00,26.00,VWS V14.01,2013-05-26 10:00:00,
2013-05-26 06:03:00,39.1,37.0,29.68,WNW,296,8.0,11.0,92,0.00,,-RA,0.00,46.00,VWS V14.01,2013-05-26 10:03:00,
2013-05-26 06:05:00,39.1,37.0,29.68,NW,312,9.0,9.0,92,0.00,,RA,0.00,42.00,VWS V14.01,2013-05-26 10:05:00,
2013-05-26 06:09:00,39.2,37.1,29.68,WNW,289,5.0,10.0,92,0.00,,-RA,0.00,58.00,VWS V14.01,2013-05-26 10:09:00,
2013-05-26 06:10:00,39.2,37.1,29.68,WSW,248,8.0,12.0,92,0.00,,RA,0.00,56.00,VWS V14.01,2013-05-26 10:10:00,
2013-05-26 06:14:00,39.3,36.9,29.69,NW,310,8.0,11.0,91,0.00,,-RA,0.00,62.00,VWS V14.01,2013-05-26 10:14:00,
2013-05-26 06:15:00,39.3,36.9,29.69,West,277,4.0,12.0,91,0.00,,RA,0.00,62.00,VWS V14.01,2013-05-26 10:15:00,
2013-05-26 06:19:00,39.4,37.0,29.69,West,281,5.0,12.0,91,0.00,,-RA,0.00,67.00,VWS V14.01,2013-05-26 10:19:00,
2013-05-26 06:20:00,39.4,37.0,29.69,NW,307,12.0,12.0,91,0.00,,RA,0.00,63.00,VWS V14.01,2013-05-26 10:20:00,
2013-05-26 06:24:00,39.5,37.1,29.69,NW,306,3.0,9.0,91,0.00,,-RA,0.00,76.00,VWS V14.01,2013-05-26 10:24:00,
2013-05-26 06:25:00,39.5,37.1,29.69,WNW,288,4.0,12.0,91,0.00,,RA,0.00,74.00,VWS V14.01,2013-05-26 10:25:00,
2013-05-26 06:29:00,39.6,37.2,29.69,NNW,344,7.0,11.0,91,0.00,,-RA,0.00,79.00,VWS V14.01,2013-05-26 10:29:00,
2013-05-26 06:30:00,39.6,37.2,29.69,NNW,336,3.0,13.0,91,0.00,,RA,0.00,76.00,VWS V14.01,2013-05-26 10:30:00,
2013-05-26 06:34:00,39.7,37.3,29.69,NW,311,11.0,16.0,91,0.00,,-RA,0.00,91.00,VWS V14.01,2013-05-26 10:34:00,
2013-05-26 06:35:00,39.7,37.3,29.69,NW,309,3.0,13.0,91,0.00,,RA,0.00,90.00,VWS V14.01,2013-05-26 10:35:00,
2013-05-26 06:39:00,39.9,37.5,29.69,WNW,288,6.0,7.0,91,0.00,,-RA,0.00,102.00,VWS V14.01,2013-05-26 10:39:00,
2013-05-26 06:40:00,39.8,37.1,29.69,North,350,6.0,16.0,90,0.00,,RA,0.00,95.00,VWS V14.01,2013-05-26 10:40:00,
2013-05-26 06:44:00,40.0,37.3,29.69,NW,306,8.0,9.0,90,0.00,,-RA,0.00,104.00,VWS V14.01,2013-05-26 10:44:00,
2013-05-26 06:45:00,40.0,37.3,29.69,WNW,289,7.0,13.0,90,0.00,,RA,0.00,107.00,VWS V14.01,2013-05-26 10:45:00,
2013-05-26 06:49:00,40.1,37.4,29.69,WNW,296,5.0,11.0,90,0.00,,-RA,0.00,107.00,VWS V14.01,2013-05-26 10:49:00,
2013-05-26 06:50:00,40.1,37.4,29.69,WNW,294,8.0,11.0,90,0.00,,RA,0.00,104.00,VWS V14.01,2013-05-26 10:50:00,
2013-05-26 06:54:00,40.2,37.5,29.69,WNW,301,11.0,12.0,90,0.00,,-RA,0.00,107.00,VWS V14.01,2013-05-26 10:54:00,
2013-05-26 06:55:00,40.2,37.5,29.69,NW,305,5.0,11.0,90,0.00,,RA,0.00,107.00,VWS V14.01,2013-05-26 10:55:00,
2013-05-26 06:59:00,40.3,37.3,29.70,WNW,297,6.0,13.0,89,0.00,,-RA,0.00,109.00,VWS V14.01,2013-05-26 10:59:00,
2013-05-26 07:00:00,40.3,37.6,29.70,West,272,7.0,15.0,90,0.00,,RA,0.00,107.00,VWS V14.01,2013-05-26 11:00:00,
2013-05-26 07:04:00,40.4,37.4,29.70,WNW,298,4.0,9.0,89,0.00,,-RA,0.00,107.00,VWS V14.01,2013-05-26 11:04:00,
2013-05-26 07:05:00,40.4,37.4,29.70,NNW,328,5.0,13.0,89,0.00,,RA,0.00,107.00,VWS V14.01,2013-05-26 11:05:00,
2013-05-26 07:09:00,40.6,37.6,29.70,WNW,298,7.0,12.0,89,0.00,,-RA,0.00,121.00,VWS V14.01,2013-05-26 11:09:00,
2013-05-26 07:10:00,40.6,37.9,29.70,WNW,285,12.0,12.0,90,0.00,,RA,0.00,114.00,VWS V14.01,2013-05-26 11:10:00,
2013-05-26 07:14:00,40.7,37.7,29.70,NW,326,3.0,14.0,89,0.00,,-RA,0.00,146.00,VWS V14.01,2013-05-26 11:14:00,
2013-05-26 07:15:00,40.7,37.7,29.70,NW,325,10.0,13.0,89,0.00,,RA,0.00,137.00,VWS V14.01,2013-05-26 11:15:00,
2013-05-26 07:19:00,40.9,37.9,29.72,WNW,294,3.0,12.0,89,0.00,,-RA,0.00,183.00,VWS V14.01,2013-05-26 11:19:00,
2013-05-26 07:20:00,40.8,37.8,29.70,WNW,288,10.0,14.0,89,0.00,,RA,0.00,172.00,VWS V14.01,2013-05-26 11:20:00,
2013-05-26 07:24:00,41.2,38.2,29.72,NW,308,2.0,12.0,89,0.00,,-RA,0.00,192.00,VWS V14.01,2013-05-26 11:24:00,
2013-05-26 07:25:00,41.1,38.1,29.72,NW,318,2.0,12.0,89,0.00,,RA,0.00,185.00,VWS V14.01,2013-05-26 11:25:00,
2013-05-26 07:29:00,41.3,38.0,29.71,NNW,329,11.0,14.0,88,0.00,,-RA,0.00,163.00,VWS V14.01,2013-05-26 11:29:00,
2013-05-26 07:30:00,41.2,37.9,29.71,NW,317,10.0,15.0,88,0.00,,RA,0.00,181.00,VWS V14.01,2013-05-26 11:30:00,
2013-05-26 07:35:00,41.3,38.0,29.71,WNW,299,4.0,11.0,88,0.00,,-RA,0.00,151.00,VWS V14.01,2013-05-26 11:35:00,
2013-05-26 07:40:00,41.3,38.0,29.71,WNW,295,6.0,14.0,88,0.00,,-RA,0.00,160.00,VWS V14.01,2013-05-26 11:40:00,
2013-05-26 07:45:00,41.4,38.1,29.72,WNW,289,3.0,13.0,88,0.00,,-RA,0.00,160.00,VWS V14.01,2013-05-26 11:45:00,
2013-05-26 07:50:00,41.5,38.5,29.72,WNW,300,7.0,10.0,89,0.00,,-RA,0.00,142.00,VWS V14.01,2013-05-26 11:50:00,
2013-05-26 07:55:00,41.5,38.2,29.72,NW,317,8.0,11.0,88,0.00,,-RA,0.00,130.00,VWS V14.01,2013-05-26 11:55:00,
2013-05-26 08:00:00,41.5,38.2,29.72,West,279,9.0,10.0,88,0.00,,-RA,0.00,109.00,VWS V14.01,2013-05-26 12:00:00,
2013-05-26 08:05:00,41.4,38.1,29.72,WNW,294,5.0,11.0,88,0.00,,-RA,0.00,111.00,VWS V14.01,2013-05-26 12:05:00,
2013-05-26 08:10:00,41.5,38.2,29.72,West,262,9.0,9.0,88,0.00,,-RA,0.00,132.00,VWS V14.01,2013-05-26 12:10:00,
2013-05-26 08:15:00,41.7,38.4,29.73,WNW,282,4.0,10.0,88,0.00,,-RA,0.00,169.00,VWS V14.01,2013-05-26 12:15:00,
2013-05-26 08:20:00,41.8,38.5,29.73,WNW,285,5.0,10.0,88,0.00,,-RA,0.00,190.00,VWS V14.01,2013-05-26 12:20:00,
2013-05-26 08:25:00,42.0,38.7,29.73,NW,313,7.0,11.0,88,0.00,,-RA,0.00,178.00,VWS V14.01,2013-05-26 12:25:00,
2013-05-26 08:30:00,42.2,38.9,29.73,West,279,4.0,8.0,88,0.00,,-RA,0.00,162.00,VWS V14.01,2013-05-26 12:30:00,
2013-05-26 08:35:00,42.4,38.8,29.73,NW,309,5.0,11.0,87,0.00,,-RA,0.00,174.00,VWS V14.01,2013-05-26 12:35:00,
2013-05-26 08:40:00,42.6,39.0,29.73,West,275,5.0,9.0,87,0.00,,-RA,0.00,199.00,VWS V14.01,2013-05-26 12:40:00,
2013-05-26 08:45:00,42.9,39.0,29.73,WNW,288,3.0,11.0,86,0.00,,-RA,0.00,274.00,VWS V14.01,2013-05-26 12:45:00,
2013-05-26 08:50:00,43.4,39.8,29.74,WNW,290,8.0,10.0,87,0.00,,-RA,0.00,355.00,VWS V14.01,2013-05-26 12:50:00,
2013-05-26 08:55:00,43.9,39.7,29.75,NNW,327,7.0,11.0,85,0.00,,-RA,0.00,429.00,VWS V14.01,2013-05-26 12:55:00,
2013-05-26 09:00:00,44.5,40.0,29.75,NNW,327,6.0,9.0,84,0.00,,-RA,0.00,388.00,VWS V14.01,2013-05-26 13:00:00,
2013-05-26 09:05:00,44.7,40.2,29.75,WNW,298,5.0,9.0,84,0.00,,RA,0.00,383.00,VWS V14.01,2013-05-26 13:05:00,
2013-05-26 09:06:00,45.0,40.2,29.75,NW,315,7.0,9.0,83,0.00,,-RA,0.00,316.00,VWS V14.01,2013-05-26 13:06:00,
2013-05-26 09:10:00,45.1,40.2,29.74,NNW,330,4.0,13.0,83,0.00,,RA,0.00,322.00,VWS V14.01,2013-05-26 13:10:00,
2013-05-26 09:11:00,45.2,39.4,29.74,WNW,298,12.0,15.0,80,0.00,,-RA,0.00,320.00,VWS V14.01,2013-05-26 13:11:00,
2013-05-26 09:15:00,45.2,39.7,29.74,SW,228,4.0,15.0,81,0.00,,RA,0.00,323.00,VWS V14.01,2013-05-26 13:15:00,
2013-05-26 09:16:00,45.3,39.2,29.74,NNW,338,6.0,17.0,79,0.00,,-RA,0.00,346.00,VWS V14.01,2013-05-26 13:16:00,
2013-05-26 09:20:00,45.4,39.6,29.74,WNW,292,5.0,17.0,80,0.00,,RA,0.00,366.00,VWS V14.01,2013-05-26 13:20:00,
2013-05-26 09:21:00,45.6,39.8,29.74,NW,306,2.0,14.0,80,0.00,,-RA,0.00,348.00,VWS V14.01,2013-05-26 13:21:00,
2013-05-26 09:25:00,45.8,39.7,29.74,NW,315,4.0,14.0,79,0.00,,RA,0.00,336.00,VWS V14.01,2013-05-26 13:25:00,
2013-05-26 09:26:00,45.9,39.8,29.74,WNW,295,3.0,11.0,79,0.00,,-RA,0.00,327.00,VWS V14.01,2013-05-26 13:26:00,
2013-05-26 09:30:00,46.0,39.9,29.74,WNW,294,4.0,11.0,79,0.00,,RA,0.00,334.00,VWS V14.01,2013-05-26 13:30:00,
2013-05-26 09:31:00,46.2,40.1,29.74,NW,310,5.0,9.0,79,0.00,,-RA,0.00,388.00,VWS V14.01,2013-05-26 13:31:00,
2013-05-26 09:35:00,46.3,40.2,29.74,NW,310,8.0,12.0,79,0.00,,RA,0.00,388.00,VWS V14.01,2013-05-26 13:35:00,
2013-05-26 09:36:00,46.3,39.5,29.74,WNW,302,5.0,13.0,77,0.00,,-RA,0.00,387.00,VWS V14.01,2013-05-26 13:36:00,
2013-05-26 09:40:00,46.4,39.9,29.74,WNW,294,8.0,13.0,78,0.00,,RA,0.00,417.00,VWS V14.01,2013-05-26 13:40:00,
2013-05-26 09:41:00,46.7,40.5,29.74,NNW,340,3.0,9.0,79,0.00,,-RA,0.00,415.00,VWS V14.01,2013-05-26 13:41:00,
2013-05-26 09:45:00,46.8,40.0,29.74,WNW,287,11.0,13.0,77,0.00,,RA,0.00,425.00,VWS V14.01,2013-05-26 13:45:00,
2013-05-26 09:46:00,46.9,40.1,29.74,NW,315,6.0,12.0,77,0.00,,-RA,0.00,464.00,VWS V14.01,2013-05-26 13:46:00,
2013-05-26 09:50:00,47.0,39.8,29.74,NW,323,3.0,12.0,76,0.00,,RA,0.00,482.00,VWS V14.01,2013-05-26 13:50:00,
2013-05-26 09:51:00,47.4,39.9,29.75,West,261,5.0,11.0,75,0.00,,-RA,0.00,373.00,VWS V14.01,2013-05-26 13:51:00,
2013-05-26 09:55:00,47.5,40.0,29.75,North,350,7.0,13.0,75,0.00,,RA,0.00,346.00,VWS V14.01,2013-05-26 13:55:00,
2013-05-26 09:56:00,47.6,40.1,29.75,WNW,300,7.0,15.0,75,0.00,,-RA,0.00,373.00,VWS V14.01,2013-05-26 13:56:00,
2013-05-26 10:00:00,47.6,39.7,29.75,NW,315,12.0,15.0,74,0.00,,RA,0.00,388.00,VWS V14.01,2013-05-26 14:00:00,
2013-05-26 10:01:00,47.7,39.1,29.75,North,360,5.0,17.0,72,0.00,,-RA,0.00,478.00,VWS V14.01,2013-05-26 14:01:00,
2013-05-26 10:05:00,47.8,39.2,29.75,NW,304,12.0,18.0,72,0.00,,RA,0.00,464.00,VWS V14.01,2013-05-26 14:05:00,
2013-05-26 10:06:00,48.1,39.5,29.75,NNW,333,3.0,16.0,72,0.00,,-RA,0.00,418.00,VWS V14.01,2013-05-26 14:06:00,
2013-05-26 10:10:00,48.2,40.0,29.75,WNW,302,9.0,16.0,73,0.00,,RA,0.00,410.00,VWS V14.01,2013-05-26 14:10:00,
2013-05-26 10:11:00,48.6,39.6,29.75,WSW,258,10.0,15.0,71,0.00,,-RA,0.00,399.00,VWS V14.01,2013-05-26 14:11:00,
2013-05-26 10:15:00,48.6,39.6,29.76,West,271,7.0,15.0,71,0.00,,RA,0.00,424.00,VWS V14.01,2013-05-26 14:15:00,
2013-05-26 10:16:00,48.6,39.3,29.76,North,349,5.0,14.0,70,0.00,,-RA,0.00,424.00,VWS V14.01,2013-05-26 14:16:00,
2013-05-26 10:20:00,48.6,39.3,29.76,West,274,9.0,14.0,70,0.00,,RA,0.00,432.00,VWS V14.01,2013-05-26 14:20:00,
2013-05-26 10:21:00,48.8,39.5,29.77,WNW,292,12.0,16.0,70,0.00,,-RA,0.00,394.00,VWS V14.01,2013-05-26 14:21:00,
2013-05-26 10:25:00,48.8,39.5,29.77,NW,325,11.0,16.0,70,0.00,,RA,0.00,401.00,VWS V14.01,2013-05-26 14:25:00,
2013-05-26 10:27:00,48.8,39.1,29.77,NW,309,16.0,21.0,69,0.00,,-RA,0.00,329.00,VWS V14.01,2013-05-26 14:27:00,
2013-05-26 10:30:00,48.9,39.2,29.77,WNW,291,11.0,21.0,69,0.00,,RA,0.00,327.00,VWS V14.01,2013-05-26 14:30:00,
2013-05-26 10:32:00,49.0,39.3,29.76,West,281,9.0,16.0,69,0.00,,-RA,0.00,313.00,VWS V14.01,2013-05-26 14:32:00,
2013-05-26 10:35:00,49.1,39.4,29.76,NW,319,15.0,16.0,69,0.00,,RA,0.00,316.00,VWS V14.01,2013-05-26 14:35:00,
2013-05-26 10:37:00,49.2,39.5,29.76,West,263,4.0,16.0,69,0.00,,-RA,0.00,325.00,VWS V14.01,2013-05-26 14:37:00,
2013-05-26 10:40:00,49.3,39.9,29.76,WNW,300,5.0,16.0,70,0.00,,RA,0.00,313.00,VWS V14.01,2013-05-26 14:40:00,
2013-05-26 10:42:00,49.3,39.2,29.76,WNW,284,9.0,18.0,68,0.00,,-RA,0.00,276.00,VWS V14.01,2013-05-26 14:42:00,
2013-05-26 10:45:00,49.4,39.3,29.76,NW,306,8.0,18.0,68,0.00,,RA,0.00,264.00,VWS V14.01,2013-05-26 14:45:00,
2013-05-26 10:47:00,49.4,39.7,29.76,WNW,298,5.0,16.0,69,0.00,,-RA,0.00,330.00,VWS V14.01,2013-05-26 14:47:00,
2013-05-26 10:50:00,49.4,39.7,29.76,WNW,296,5.0,16.0,69,0.00,,RA,0.00,369.00,VWS V14.01,2013-05-26 14:50:00,
2013-05-26 10:52:00,49.7,40.3,29.76,NW,310,10.0,16.0,70,0.00,,-RA,0.00,406.00,VWS V14.01,2013-05-26 14:52:00,
2013-05-26 10:55:00,49.7,40.0,29.76,WNW,291,9.0,16.0,69,0.00,,RA,0.00,406.00,VWS V14.01,2013-05-26 14:55:00,
2013-05-26 10:57:00,49.9,40.2,29.76,NNW,327,5.0,15.0,69,0.00,,-RA,0.00,394.00,VWS V14.01,2013-05-26 14:57:00,
2013-05-26 11:00:00,50.0,39.9,29.76,WSW,253,4.0,15.0,68,0.00,,RA,0.00,394.00,VWS V14.01,2013-05-26 15:00:00,
2013-05-26 11:02:00,50.5,41.1,29.76,NNW,333,12.0,12.0,70,0.00,,-RA,0.00,517.00,VWS V14.01,2013-05-26 15:02:00,
2013-05-26 11:05:00,50.5,40.3,29.76,NNW,327,14.0,14.0,68,0.00,,RA,0.00,517.00,VWS V14.01,2013-05-26 15:05:00,
2013-05-26 11:07:00,50.8,39.5,29.76,WNW,296,7.0,19.0,65,0.00,,-RA,0.00,515.00,VWS V14.01,2013-05-26 15:07:00,
2013-05-26 11:10:00,50.8,39.5,29.76,WNW,297,8.0,19.0,65,0.00,,RA,0.00,515.00,VWS V14.01,2013-05-26 15:10:00,
2013-05-26 11:12:00,51.0,40.1,29.76,NW,317,6.0,17.0,66,0.00,,-RA,0.00,492.00,VWS V14.01,2013-05-26 15:12:00,
2013-05-26 11:15:00,51.0,40.1,29.76,NW,321,7.0,17.0,66,0.00,,RA,0.00,480.00,VWS V14.01,2013-05-26 15:15:00,
2013-05-26 11:17:00,51.2,39.8,29.77,NW,316,18.0,23.0,65,0.00,,-RA,0.00,554.00,VWS V14.01,2013-05-26 15:17:00,
2013-05-26 11:20:00,51.2,39.8,29.77,NW,323,13.0,23.0,65,0.00,,RA,0.00,591.00,VWS V14.01,2013-05-26 15:20:00,
2013-05-26 11:22:00,51.1,39.4,29.78,NNW,338,15.0,16.0,64,0.00,,-RA,0.00,610.00,VWS V14.01,2013-05-26 15:22:00,
2013-05-26 11:25:00,51.1,39.4,29.78,WNW,299,17.0,20.0,64,0.00,,RA,0.00,610.00,VWS V14.01,2013-05-26 15:25:00,
2013-05-26 11:27:00,51.5,38.9,29.78,WNW,302,6.0,19.0,62,0.00,,-RA,0.00,485.00,VWS V14.01,2013-05-26 15:27:00,
2013-05-26 11:30:00,51.6,39.0,29.78,West,279,5.0,19.0,62,0.00,,RA,0.00,485.00,VWS V14.01,2013-05-26 15:30:00,
2013-05-26 11:32:00,52.0,39.8,29.77,NW,311,2.0,14.0,63,0.00,,-RA,0.00,475.00,VWS V14.01,2013-05-26 15:32:00,
2013-05-26 11:35:00,52.0,39.8,29.77,WNW,302,4.0,14.0,63,0.00,,RA,0.00,475.00,VWS V14.01,2013-05-26 15:35:00,
2013-05-26 11:37:00,52.3,39.3,29.77,NW,316,6.0,15.0,61,0.00,,-RA,0.00,404.00,VWS V14.01,2013-05-26 15:37:00,
2013-05-26 11:40:00,52.3,39.3,29.77,NW,316,6.0,15.0,61,0.00,,RA,0.00,404.00,VWS V14.01,2013-05-26 15:40:00,
2013-05-26 11:42:00,52.5,39.9,29.77,WSW,246,8.0,18.0,62,0.00,,-RA,0.00,471.00,VWS V14.01,2013-05-26 15:42:00,
2013-05-26 11:45:00,52.5,39.9,29.77,WSW,246,8.0,18.0,62,0.00,,RA,0.00,471.00,VWS V14.01,2013-05-26 15:45:00,
2013-05-26 11:47:00,52.4,39.4,29.77,NW,312,9.0,18.0,61,0.00,,-RA,0.00,318.00,VWS V14.01,2013-05-26 15:47:00,
2013-05-26 11:50:00,52.4,39.4,29.77,NW,312,9.0,18.0,61,0.00,,RA,0.00,318.00,VWS V14.01,2013-05-26 15:50:00,
2013-05-26 11:52:00,52.5,39.5,29.77,WNW,294,13.0,16.0,61,0.00,,-RA,0.00,262.00,VWS V14.01,2013-05-26 15:52:00,
2013-05-26 11:55:00,52.5,39.5,29.77,WNW,294,13.0,16.0,61,0.00,,RA,0.00,262.00,VWS V14.01,2013-05-26 15:55:00,
2013-05-26 11:57:00,52.3,39.7,29.77,NW,309,11.0,16.0,62,0.00,,-RA,0.00,343.00,VWS V14.01,2013-05-26 15:57:00,
2013-05-26 12:00:00,52.3,39.7,29.77,NW,309,11.0,16.0,62,0.00,,RA,0.00,343.00,VWS V14.01,2013-05-26 16:00:00,
2013-05-26 12:02:00,52.4,38.9,29.78,NNW,329,9.0,19.0,60,0.00,,-RA,0.00,425.00,VWS V14.01,2013-05-26 16:02:00,
2013-05-26 12:05:00,52.4,38.9,29.78,NNW,329,9.0,19.0,60,0.00,,RA,0.00,425.00,VWS V14.01,2013-05-26 16:05:00,
2013-05-26 12:08:00,52.6,39.1,29.77,NNW,335,5.0,9.0,60,0.00,,-RA,0.00,417.00,VWS V14.01,2013-05-26 16:08:00,
2013-05-26 12:10:00,52.6,39.1,29.78,NW,319,9.0,15.0,60,0.00,,RA,0.00,610.00,VWS V14.01,2013-05-26 16:10:00,
2013-05-26 12:13:00,52.9,39.4,29.78,West,280,11.0,12.0,60,0.00,,-RA,0.00,443.00,VWS V14.01,2013-05-26 16:13:00,
2013-05-26 12:15:00,52.9,39.4,29.77,West,273,11.0,19.0,60,0.00,,RA,0.00,469.00,VWS V14.01,2013-05-26 16:15:00,
2013-05-26 12:18:00,53.5,40.0,29.79,WNW,302,3.0,7.0,60,0.00,,-RA,0.00,809.00,VWS V14.01,2013-05-26 16:18:00,
2013-05-26 12:20:00,53.4,40.3,29.77,West,273,7.0,15.0,61,0.00,,RA,0.00,809.00,VWS V14.01,2013-05-26 16:20:00,
2013-05-26 12:23:00,53.7,40.2,29.79,NW,311,8.0,13.0,60,0.00,,-RA,0.00,246.00,VWS V14.01,2013-05-26 16:23:00,
2013-05-26 12:25:00,53.7,40.2,29.79,West,261,13.0,16.0,60,0.00,,RA,0.00,246.00,VWS V14.01,2013-05-26 16:25:00,
2013-05-26 12:28:00,53.4,39.9,29.79,NW,306,7.0,8.0,60,0.00,,-RA,0.00,287.00,VWS V14.01,2013-05-26 16:28:00,
2013-05-26 12:30:00,53.3,39.8,29.80,NW,319,2.0,13.0,60,0.00,,RA,0.00,287.00,VWS V14.01,2013-05-26 16:30:00,
2013-05-26 12:33:00,53.1,39.6,29.79,NW,326,8.0,10.0,60,0.00,,-RA,0.00,366.00,VWS V14.01,2013-05-26 16:33:00,
2013-05-26 12:35:00,53.1,39.2,29.79,North,355,8.0,19.0,59,0.00,,RA,0.00,360.00,VWS V14.01,2013-05-26 16:35:00,
2013-05-26 12:38:00,53.3,39.8,29.80,WNW,302,11.0,12.0,60,0.00,,-RA,0.00,413.00,VWS V14.01,2013-05-26 16:38:00,
2013-05-26 12:40:00,53.2,39.7,29.80,North,351,7.0,17.0,60,0.00,,RA,0.00,403.00,VWS V14.01,2013-05-26 16:40:00,
2013-05-26 12:43:00,53.4,40.7,29.79,NW,315,6.0,8.0,62,0.00,,-RA,0.00,380.00,VWS V14.01,2013-05-26 16:43:00,
2013-05-26 12:45:00,53.4,40.7,29.78,West,267,3.0,17.0,62,0.00,,RA,0.00,387.00,VWS V14.01,2013-05-26 16:45:00,
2013-05-26 12:48:00,53.2,41.0,29.79,WNW,291,5.0,10.0,63,0.00,,-RA,0.00,264.00,VWS V14.01,2013-05-26 16:48:00,
2013-05-26 12:50:00,53.3,41.0,29.79,West,266,10.0,12.0,63,0.00,,RA,0.00,272.00,VWS V14.01,2013-05-26 16:50:00,
2013-05-26 12:53:00,53.0,40.3,29.79,West,263,4.0,7.0,62,0.00,,-RA,0.00,281.00,VWS V14.01,2013-05-26 16:53:00,
2013-05-26 12:55:00,53.0,39.9,29.79,West,260,7.0,14.0,61,0.00,,RA,0.00,290.00,VWS V14.01,2013-05-26 16:55:00,
2013-05-26 12:58:00,52.9,40.2,29.79,NW,316,6.0,8.0,62,0.00,,-RA,0.00,309.00,VWS V14.01,2013-05-26 16:58:00,
2013-05-26 13:00:00,52.9,40.7,29.79,West,275,8.0,12.0,63,0.00,,RA,0.00,302.00,VWS V14.01,2013-05-26 17:00:00,
2013-05-26 13:03:00,52.7,39.6,29.79,WNW,292,11.0,12.0,61,0.00,,-RA,0.00,225.00,VWS V14.01,2013-05-26 17:03:00,
2013-05-26 13:05:00,52.8,39.7,29.79,West,262,6.0,18.0,61,0.00,,RA,0.00,234.00,VWS V14.01,2013-05-26 17:05:00,
2013-05-26 13:08:00,52.7,39.6,29.79,WNW,293,9.0,12.0,61,0.00,,-RA,0.00,221.00,VWS V14.01,2013-05-26 17:08:00,
2013-05-26 13:10:00,52.7,39.6,29.79,North,360,12.0,17.0,61,0.00,,RA,0.00,236.00,VWS V14.01,2013-05-26 17:10:00,
2013-05-26 13:13:00,52.7,40.1,29.80,West,269,5.0,9.0,62,0.00,,-RA,0.00,206.00,VWS V14.01,2013-05-26 17:13:00,
2013-05-26 13:15:00,52.7,39.6,29.80,NW,304,7.0,14.0,61,0.00,,RA,0.00,236.00,VWS V14.01,2013-05-26 17:15:00,
2013-05-26 13:18:00,52.5,39.5,29.81,WNW,297,3.0,11.0,61,0.00,,-RA,0.00,258.00,VWS V14.01,2013-05-26 17:18:00,
2013-05-26 13:20:00,52.5,39.5,29.80,WNW,303,9.0,19.0,61,0.00,,RA,0.00,239.00,VWS V14.01,2013-05-26 17:20:00,
2013-05-26 13:23:00,52.5,39.5,29.82,West,264,13.0,18.0,61,0.00,,-RA,0.00,297.00,VWS V14.01,2013-05-26 17:23:00,
2013-05-26 13:25:00,52.5,40.3,29.81,NW,323,9.0,17.0,63,0.00,,RA,0.00,287.00,VWS V14.01,2013-05-26 17:25:00,
2013-05-26 13:29:00,52.5,39.5,29.82,West,267,12.0,14.0,61,0.00,,-RA,0.00,387.00,VWS V14.01,2013-05-26 17:29:00,
2013-05-26 13:30:00,52.5,39.5,29.82,WNW,284,8.0,19.0,61,0.00,,RA,0.00,374.00,VWS V14.01,2013-05-26 17:30:00,
2013-05-26 13:34:00,52.8,39.7,29.82,WNW,298,16.0,23.0,61,0.00,,-RA,0.00,473.00,VWS V14.01,2013-05-26 17:34:00,
2013-05-26 13:35:00,52.7,40.5,29.82,WNW,298,15.0,16.0,63,0.00,,RA,0.00,459.00,VWS V14.01,2013-05-26 17:35:00,
2013-05-26 13:39:00,52.9,40.7,29.82,WNW,286,5.0,14.0,63,0.00,,-RA,0.00,490.00,VWS V14.01,2013-05-26 17:39:00,
2013-05-26 13:40:00,52.9,40.7,29.82,WSW,243,9.0,23.0,63,0.00,,RA,0.00,475.00,VWS V14.01,2013-05-26 17:40:00,
2013-05-26 13:44:00,53.8,41.1,29.80,West,278,14.0,15.0,62,0.00,,-RA,0.00,462.00,VWS V14.01,2013-05-26 17:44:00,
2013-05-26 13:45:00,53.6,42.5,29.81,WSW,252,9.0,14.0,66,0.00,,RA,0.00,425.00,VWS V14.01,2013-05-26 17:45:00,
2013-05-26 13:49:00,54.3,41.2,29.82,WNW,294,8.0,14.0,61,0.00,,-RA,0.00,381.00,VWS V14.01,2013-05-26 17:49:00,
2013-05-26 13:50:00,54.2,41.1,29.81,West,277,11.0,19.0,61,0.00,,RA,0.00,404.00,VWS V14.01,2013-05-26 17:50:00,
2013-05-26 13:54:00,54.1,40.1,29.81,West,268,11.0,18.0,59,0.00,,-RA,0.00,497.00,VWS V14.01,2013-05-26 17:54:00,
2013-05-26 13:55:00,54.4,39.5,29.81,NW,313,18.0,20.0,57,0.00,,RA,0.00,454.00,VWS V14.01,2013-05-26 17:55:00,
2013-05-26 13:59:00,53.9,39.5,29.81,NW,309,12.0,24.0,58,0.00,,-RA,0.00,454.00,VWS V14.01,2013-05-26 17:59:00,
2013-05-26 14:00:00,54.1,41.0,29.81,WNW,294,17.0,19.0,61,0.00,,RA,0.00,520.00,VWS V14.01,2013-05-26 18:00:00,
2013-05-26 14:04:00,53.4,39.9,29.81,NW,319,6.0,12.0,60,0.00,,-RA,0.00,388.00,VWS V14.01,2013-05-26 18:04:00,
2013-05-26 14:05:00,53.6,40.5,29.83,West,265,12.0,24.0,61,0.00,,RA,0.00,339.00,VWS V14.01,2013-05-26 18:05:00,
2013-05-26 14:09:00,53.4,39.9,29.81,NNW,338,9.0,13.0,60,0.00,,-RA,0.00,457.00,VWS V14.01,2013-05-26 18:09:00,
2013-05-26 14:10:00,53.3,41.0,29.81,WNW,300,10.0,14.0,63,0.00,,RA,0.00,457.00,VWS V14.01,2013-05-26 18:10:00,
2013-05-26 14:14:00,54.0,39.6,29.82,NNW,347,9.0,14.0,58,0.00,,-RA,0.00,315.00,VWS V14.01,2013-05-26 18:14:00,
2013-05-26 14:15:00,54.0,40.4,29.82,NW,309,13.0,17.0,60,0.00,,RA,0.00,455.00,VWS V14.01,2013-05-26 18:15:00,
2013-05-26 14:19:00,53.7,39.7,29.81,West,273,8.0,14.0,59,0.00,,-RA,0.00,367.00,VWS V14.01,2013-05-26 18:19:00,
2013-05-26 14:20:00,53.7,39.7,29.81,WNW,300,8.0,23.0,59,0.00,,RA,0.00,346.00,VWS V14.01,2013-05-26 18:20:00,
2013-05-26 14:24:00,53.9,39.5,29.83,WNW,303,13.0,23.0,58,0.00,,-RA,0.00,954.00,VWS V14.01,2013-05-26 18:24:00,
2013-05-26 14:25:00,53.7,40.6,29.82,NW,306,15.0,16.0,61,0.00,,RA,0.00,786.00,VWS V14.01,2013-05-26 18:25:00,
2013-05-26 14:29:00,54.4,39.5,29.81,NW,318,12.0,25.0,57,0.00,,-RA,0.00,884.00,VWS V14.01,2013-05-26 18:29:00,
2013-05-26 14:30:00,54.1,40.1,29.81,WSW,255,11.0,23.0,59,0.00,,RA,0.00,888.00,VWS V14.01,2013-05-26 18:30:00,
2013-05-26 14:34:00,55.2,40.7,29.83,NW,317,14.0,22.0,58,0.00,,-RA,0.00,772.00,VWS V14.01,2013-05-26 18:34:00,
2013-05-26 14:35:00,54.8,40.8,29.81,NW,309,6.0,25.0,59,0.00,,RA,0.00,823.00,VWS V14.01,2013-05-26 18:35:00,
2013-05-26 14:39:00,54.8,39.4,29.82,NW,323,6.0,16.0,56,0.00,,-RA,0.00,232.00,VWS V14.01,2013-05-26 18:39:00,
2013-05-26 14:40:00,55.1,39.2,29.83,North,5,6.0,22.0,55,0.00,,RA,0.00,269.00,VWS V14.01,2013-05-26 18:40:00,
2013-05-26 14:44:00,54.5,39.6,29.82,NW,305,12.0,15.0,57,0.00,,-RA,0.00,343.00,VWS V14.01,2013-05-26 18:44:00,
2013-05-26 14:45:00,54.6,39.7,29.82,WNW,300,11.0,16.0,57,0.00,,RA,0.00,276.00,VWS V14.01,2013-05-26 18:45:00,
2013-05-26 14:49:00,54.2,38.9,29.82,NW,321,11.0,21.0,56,0.00,,-RA,0.00,373.00,VWS V14.01,2013-05-26 18:49:00,
2013-05-26 14:50:00,54.3,39.0,29.83,West,271,13.0,19.0,56,0.00,,RA,0.00,473.00,VWS V14.01,2013-05-26 18:50:00,
2013-05-26 14:54:00,54.6,40.1,29.82,WNW,290,8.0,8.0,58,0.00,,-RA,0.00,362.00,VWS V14.01,2013-05-26 18:54:00,
2013-05-26 14:55:00,54.4,40.0,29.82,SW,228,3.0,21.0,58,0.00,,RA,0.00,376.00,VWS V14.01,2013-05-26 18:55:00,
2013-05-26 15:00:00,54.4,38.1,29.84,NNW,334,13.0,21.0,54,0.00,,-RA,0.00,190.00,VWS V14.01,2013-05-26 19:00:00,
2013-05-26 15:05:00,53.8,38.9,29.83,WNW,284,6.0,22.0,57,0.00,,-RA,0.00,181.00,VWS V14.01,2013-05-26 19:05:00,
2013-05-26 15:10:00,53.1,38.7,29.85,NW,306,13.0,22.0,58,0.00,,-RA,0.00,329.00,VWS V14.01,2013-05-26 19:10:00,
2013-05-26 15:15:00,52.6,38.7,29.83,NW,312,7.0,17.0,59,0.00,,-RA,0.00,397.00,VWS V14.01,2013-05-26 19:15:00,
2013-05-26 15:20:00,53.0,38.6,29.84,WNW,299,8.0,20.0,58,0.00,,-RA,0.00,316.00,VWS V14.01,2013-05-26 19:20:00,
2013-05-26 15:25:00,53.5,38.7,29.84,NW,325,8.0,17.0,57,0.00,,-RA,0.00,404.00,VWS V14.01,2013-05-26 19:25:00,
2013-05-26 15:30:00,53.8,38.5,29.84,WSW,249,9.0,16.0,56,0.00,,-RA,0.00,311.00,VWS V14.01,2013-05-26 19:30:00,
2013-05-26 15:35:00,53.9,39.0,29.85,WNW,294,12.0,20.0,57,0.00,,-RA,0.00,220.00,VWS V14.01,2013-05-26 19:35:00,
2013-05-26 15:40:00,54.0,39.1,29.84,NW,305,9.0,21.0,57,0.00,,-RA,0.00,327.00,VWS V14.01,2013-05-26 19:40:00,
2013-05-26 15:45:00,53.9,39.0,29.86,NW,326,10.0,18.0,57,0.00,,-RA,0.00,364.00,VWS V14.01,2013-05-26 19:45:00,
2013-05-26 15:50:00,53.9,39.5,29.84,WNW,300,8.0,19.0,58,0.00,,-RA,0.00,854.00,VWS V14.01,2013-05-26 19:50:00,
2013-05-26 15:55:00,53.9,39.0,29.86,West,277,12.0,21.0,57,0.00,,-RA,0.00,341.00,VWS V14.01,2013-05-26 19:55:00,
2013-05-26 16:00:00,53.9,39.0,29.85,NW,323,8.0,16.0,57,0.00,,-RA,0.00,341.00,VWS V14.01,2013-05-26 20:00:00,
2013-05-26 16:05:00,53.8,38.0,29.85,NW,309,6.0,18.0,55,0.00,,-RA,0.00,710.00,VWS V14.01,2013-05-26 20:05:00,
2013-05-26 16:10:00,54.8,39.0,29.86,SW,236,11.0,16.0,55,0.00,,-RA,0.00,719.00,VWS V14.01,2013-05-26 20:10:00,
2013-05-26 16:15:00,55.7,39.8,29.85,NW,305,5.0,16.0,55,0.00,,-RA,0.00,684.00,VWS V14.01,2013-05-26 20:15:00,
2013-05-26 16:20:00,55.9,40.5,29.85,NNW,346,11.0,17.0,56,0.00,,RA,0.00,747.00,VWS V14.01,2013-05-26 20:20:00,
2013-05-26 16:21:00,56.3,39.4,29.87,West,279,8.0,18.0,53,0.00,,-RA,0.00,663.00,VWS V14.01,2013-05-26 20:21:00,
2013-05-26 16:25:00,56.4,38.5,29.87,WNW,300,11.0,21.0,51,0.00,,RA,0.00,675.00,VWS V14.01,2013-05-26 20:25:00,
2013-05-26 16:26:00,55.8,38.0,29.85,NW,319,8.0,25.0,51,0.00,,-RA,0.00,721.00,VWS V14.01,2013-05-26 20:26:00,
2013-05-26 16:30:00,55.7,37.4,29.85,West,276,8.0,25.0,50,0.00,,RA,0.00,721.00,VWS V14.01,2013-05-26 20:30:00,
2013-05-26 16:31:00,55.6,38.3,29.85,WNW,292,8.0,18.0,52,0.00,,-RA,0.00,694.00,VWS V14.01,2013-05-26 20:31:00,
2013-05-26 16:35:00,55.7,37.4,29.87,NW,309,11.0,18.0,50,0.00,,RA,0.00,694.00,VWS V14.01,2013-05-26 20:35:00,
2013-05-26 16:36:00,55.5,37.7,29.87,NW,317,14.0,18.0,51,0.00,,-RA,0.00,229.00,VWS V14.01,2013-05-26 20:36:00,
2013-05-26 16:40:00,55.3,37.0,29.86,NNW,342,15.0,23.0,50,0.00,,RA,0.00,234.00,VWS V14.01,2013-05-26 20:40:00,
2013-05-26 16:41:00,55.2,37.9,29.86,WNW,302,14.0,20.0,52,0.00,,-RA,0.00,220.00,VWS V14.01,2013-05-26 20:41:00,
2013-05-26 16:45:00,55.1,36.3,29.86,NNW,338,12.0,23.0,49,0.00,,RA,0.00,236.00,VWS V14.01,2013-05-26 20:45:00,
2013-05-26 16:46:00,54.7,36.9,29.88,NNW,330,12.0,19.0,51,0.00,,-RA,0.00,179.00,VWS V14.01,2013-05-26 20:46:00,
2013-05-26 16:50:00,54.6,36.8,29.87,West,279,13.0,19.0,51,0.00,,RA,0.00,185.00,VWS V14.01,2013-05-26 20:50:00,
2013-05-26 16:51:00,54.5,37.2,29.86,NW,311,5.0,19.0,52,0.00,,-RA,0.00,253.00,VWS V14.01,2013-05-26 20:51:00,
2013-05-26 16:55:00,54.5,37.7,29.86,NW,306,15.0,19.0,53,0.00,,RA,0.00,265.00,VWS V14.01,2013-05-26 20:55:00,
2013-05-26 16:56:00,54.6,36.8,29.88,WNW,285,25.0,25.0,51,0.00,,-RA,0.00,260.00,VWS V14.01,2013-05-26 20:56:00,
2013-05-26 17:00:00,54.6,36.8,29.88,WNW,299,16.0,26.0,51,0.00,,RA,0.00,399.00,VWS V14.01,2013-05-26 21:00:00,
2013-05-26 17:01:00,54.9,37.1,29.86,NW,305,15.0,18.0,51,0.00,,-RA,0.00,422.00,VWS V14.01,2013-05-26 21:01:00,
2013-05-26 17:05:00,55.0,37.2,29.87,WNW,298,11.0,18.0,51,0.00,,RA,0.00,306.00,VWS V14.01,2013-05-26 21:05:00,
2013-05-26 17:06:00,55.0,36.7,29.87,NW,319,15.0,23.0,50,0.00,,-RA,0.00,373.00,VWS V14.01,2013-05-26 21:06:00,
2013-05-26 17:10:00,55.0,36.7,29.88,NW,313,13.0,23.0,50,0.00,,RA,0.00,353.00,VWS V14.01,2013-05-26 21:10:00,
2013-05-26 17:11:00,54.7,36.4,29.89,NNW,332,18.0,22.0,50,0.00,,-RA,0.00,156.00,VWS V14.01,2013-05-26 21:11:00,
2013-05-26 17:15:00,54.5,36.3,29.88,NNW,329,11.0,22.0,50,0.00,,RA,0.00,163.00,VWS V14.01,2013-05-26 21:15:00,
2013-05-26 17:16:00,54.1,36.9,29.88,NNW,342,19.0,22.0,52,0.00,,-RA,0.00,149.00,VWS V14.01,2013-05-26 21:16:00,
2013-05-26 17:20:00,54.0,36.3,29.88,WNW,302,13.0,22.0,51,0.00,,RA,0.00,151.00,VWS V14.01,2013-05-26 21:20:00,
2013-05-26 17:21:00,53.9,36.7,29.89,NNW,332,15.0,17.0,52,0.00,,-RA,0.00,167.00,VWS V14.01,2013-05-26 21:21:00,
2013-05-26 17:25:00,53.9,36.2,29.88,NW,310,13.0,20.0,51,0.00,,RA,0.00,162.00,VWS V14.01,2013-05-26 21:25:00,
2013-05-26 17:26:00,53.9,37.2,29.88,WNW,302,6.0,14.0,53,0.00,,-RA,0.00,158.00,VWS V14.01,2013-05-26 21:26:00,
2013-05-26 17:30:00,53.9,37.2,29.88,WNW,302,7.0,14.0,53,0.00,,RA,0.00,160.00,VWS V14.01,2013-05-26 21:30:00,
2013-05-26 17:31:00,53.9,37.2,29.90,WNW,303,7.0,18.0,53,0.00,,-RA,0.00,206.00,VWS V14.01,2013-05-26 21:31:00,
2013-05-26 17:35:00,53.9,37.2,29.89,NW,315,15.0,18.0,53,0.00,,RA,0.00,202.00,VWS V14.01,2013-05-26 21:35:00,
2013-05-26 17:36:00,54.0,36.8,29.88,NW,309,10.0,19.0,52,0.00,,-RA,0.00,192.00,VWS V14.01,2013-05-26 21:36:00,
2013-05-26 17:40:00,54.0,36.8,29.88,WSW,252,5.0,19.0,52,0.00,,RA,0.00,176.00,VWS V14.01,2013-05-26 21:40:00,
2013-05-26 17:41:00,54.0,37.3,29.90,West,280,6.0,19.0,53,0.00,,-RA,0.00,139.00,VWS V14.01,2013-05-26 21:41:00,
2013-05-26 17:45:00,54.0,37.8,29.90,WNW,297,9.0,19.0,54,0.00,,RA,0.00,134.00,VWS V14.01,2013-05-26 21:45:00,
2013-05-26 17:47:00,53.9,38.1,29.89,West,272,6.0,13.0,55,0.00,,-RA,0.00,109.00,VWS V14.01,2013-05-26 21:47:00,
2013-05-26 17:50:00,53.9,38.1,29.89,West,262,8.0,16.0,55,0.00,,RA,0.00,114.00,VWS V14.01,2013-05-26 21:50:00,
2013-05-26 17:52:00,53.6,38.3,29.90,NW,320,13.0,19.0,56,0.00,,-RA,0.00,114.00,VWS V14.01,2013-05-26 21:52:00,
2013-05-26 17:55:00,53.6,38.3,29.90,WNW,298,10.0,19.0,56,0.00,,RA,0.00,118.00,VWS V14.01,2013-05-26 21:55:00,
2013-05-26 17:57:00,53.5,38.7,29.89,NW,306,6.0,14.0,57,0.00,,-RA,0.00,91.00,VWS V14.01,2013-05-26 21:57:00,
2013-05-26 18:00:00,53.5,38.7,29.89,NW,307,5.0,14.0,57,0.00,,RA,0.00,77.00,VWS V14.01,2013-05-26 22:00:00,
2013-05-26 18:02:00,53.4,38.1,29.91,WNW,298,10.0,16.0,56,0.00,,-RA,0.00,83.00,VWS V14.01,2013-05-26 22:02:00,
2013-05-26 18:05:00,53.4,38.1,29.91,West,271,5.0,16.0,56,0.00,,RA,0.00,86.00,VWS V14.01,2013-05-26 22:05:00,
2013-05-26 18:07:00,53.4,38.6,29.90,NW,321,9.0,17.0,57,0.00,,-RA,0.00,160.00,VWS V14.01,2013-05-26 22:07:00,
2013-05-26 18:10:00,53.4,38.6,29.90,WNW,303,9.0,17.0,57,0.00,,RA,0.00,120.00,VWS V14.01,2013-05-26 22:10:00,
2013-05-26 18:12:00,53.4,38.6,29.92,WNW,295,9.0,15.0,57,0.00,,-RA,0.00,102.00,VWS V14.01,2013-05-26 22:12:00,
2013-05-26 18:15:00,53.4,38.6,29.92,WNW,303,8.0,15.0,57,0.00,,RA,0.00,100.00,VWS V14.01,2013-05-26 22:15:00,
2013-05-26 18:17:00,53.5,37.8,29.90,WNW,303,12.0,24.0,55,0.00,,-RA,0.00,81.00,VWS V14.01,2013-05-26 22:17:00,
2013-05-26 18:20:00,53.5,37.8,29.90,NW,314,8.0,24.0,55,0.00,,RA,0.00,81.00,VWS V14.01,2013-05-26 22:20:00,
2013-05-26 18:22:00,53.3,38.5,29.92,WNW,292,12.0,19.0,57,0.00,,-RA,0.00,63.00,VWS V14.01,2013-05-26 22:22:00,
2013-05-26 18:25:00,53.3,38.5,29.92,WNW,294,12.0,19.0,57,0.00,,RA,0.00,63.00,VWS V14.01,2013-05-26 22:25:00,
2013-05-26 18:27:00,53.1,38.7,29.91,NW,321,7.0,15.0,58,0.00,,-RA,0.00,63.00,VWS V14.01,2013-05-26 22:27:00,
2013-05-26 18:30:00,53.1,38.7,29.91,NW,314,4.0,15.0,58,0.00,,RA,0.00,63.00,VWS V14.01,2013-05-26 22:30:00,
2013-05-26 18:32:00,53.0,39.1,29.92,WNW,299,10.0,13.0,59,0.00,,-RA,0.00,93.00,VWS V14.01,2013-05-26 22:32:00,
2013-05-26 18:35:00,53.0,39.1,29.92,NW,306,11.0,13.0,59,0.00,,RA,0.00,93.00,VWS V14.01,2013-05-26 22:35:00,
2013-05-26 18:37:00,53.0,39.1,29.92,NNW,339,8.0,12.0,59,0.00,,-RA,0.00,98.00,VWS V14.01,2013-05-26 22:37:00,
2013-05-26 18:40:00,53.0,39.1,29.92,NNW,339,8.0,12.0,59,0.00,,RA,0.00,98.00,VWS V14.01,2013-05-26 22:40:00,
2013-05-26 18:42:00,53.0,39.1,29.93,WNW,291,14.0,16.0,59,0.00,,-RA,0.00,91.00,VWS V14.01,2013-05-26 22:42:00,
2013-05-26 18:45:00,53.0,39.1,29.93,WNW,291,14.0,16.0,59,0.00,,RA,0.00,91.00,VWS V14.01,2013-05-26 22:45:00,
2013-05-26 18:47:00,53.3,39.3,29.92,WNW,298,12.0,18.0,59,0.00,,-RA,0.00,158.00,VWS V14.01,2013-05-26 22:47:00,
2013-05-26 18:50:00,53.3,39.3,29.92,WNW,298,12.0,18.0,59,0.00,,RA,0.00,158.00,VWS V14.01,2013-05-26 22:50:00,
2013-05-26 18:52:00,53.5,39.1,29.92,NW,305,7.0,18.0,58,0.00,,-RA,0.00,42.00,VWS V14.01,2013-05-26 22:52:00,
2013-05-26 18:55:00,53.5,39.1,29.92,NW,305,7.0,18.0,58,0.00,,RA,0.00,42.00,VWS V14.01,2013-05-26 22:55:00,
2013-05-26 18:57:00,53.4,39.0,29.92,WNW,299,5.0,17.0,58,0.00,,-RA,0.00,35.00,VWS V14.01,2013-05-26 22:57:00,
2013-05-26 19:00:00,53.4,39.0,29.92,WNW,299,5.0,17.0,58,0.00,,RA,0.00,35.00,VWS V14.01,2013-05-26 23:00:00,
2013-05-26 19:02:00,53.1,37.8,29.92,ENE,60,5.0,20.0,56,0.00,,-RA,0.00,33.00,VWS V14.01,2013-05-26 23:02:00,
2013-05-26 19:05:00,53.1,37.8,29.92,ENE,60,5.0,20.0,56,0.00,,RA,0.00,33.00,VWS V14.01,2013-05-26 23:05:00,
2013-05-26 19:07:00,52.9,38.1,29.93,NW,319,5.0,15.0,57,0.00,,-RA,0.00,30.00,VWS V14.01,2013-05-26 23:07:00,
2013-05-26 19:10:00,52.9,38.1,29.93,NW,319,5.0,15.0,57,0.00,,RA,0.00,30.00,VWS V14.01,2013-05-26 23:10:00,
2013-05-26 19:12:00,52.7,38.8,29.93,NW,308,4.0,11.0,59,0.00,,-RA,0.00,26.00,VWS V14.01,2013-05-26 23:12:00,
2013-05-26 19:15:00,52.7,38.8,29.93,NW,308,4.0,11.0,59,0.00,,RA,0.00,26.00,VWS V14.01,2013-05-26 23:15:00,
2013-05-26 19:17:00,52.3,38.8,29.94,WNW,284,6.0,14.0,60,0.00,,-RA,0.00,30.00,VWS V14.01,2013-05-26 23:17:00,
2013-05-26 19:20:00,52.3,38.8,29.94,WNW,284,6.0,14.0,60,0.00,,RA,0.00,30.00,VWS V14.01,2013-05-26 23:20:00,
2013-05-26 19:22:00,52.1,39.1,29.93,NW,309,5.0,14.0,61,0.00,,-RA,0.00,37.00,VWS V14.01,2013-05-26 23:22:00,
2013-05-26 19:25:00,52.1,39.1,29.93,NW,309,5.0,14.0,61,0.00,,RA,0.00,37.00,VWS V14.01,2013-05-26 23:25:00,
2013-05-26 19:27:00,52.1,39.1,29.95,NW,325,8.0,11.0,61,0.00,,-RA,0.00,46.00,VWS V14.01,2013-05-26 23:27:00,
2013-05-26 19:30:00,52.1,39.1,29.95,NW,325,8.0,11.0,61,0.00,,RA,0.00,46.00,VWS V14.01,2013-05-26 23:30:00,
2013-05-26 19:32:00,52.1,39.1,29.94,NW,313,4.0,13.0,61,0.00,,-RA,0.00,37.00,VWS V14.01,2013-05-26 23:32:00,
2013-05-26 19:35:00,52.1,39.1,29.94,NW,313,4.0,13.0,61,0.00,,RA,0.00,37.00,VWS V14.01,2013-05-26 23:35:00,
2013-05-26 19:37:00,52.1,39.1,29.94,NW,317,10.0,17.0,61,0.00,,-RA,0.00,18.00,VWS V14.01,2013-05-26 23:37:00,
2013-05-26 19:40:00,52.1,39.1,29.94,NW,317,10.0,17.0,61,0.00,,RA,0.00,18.00,VWS V14.01,2013-05-26 23:40:00,
2013-05-26 19:42:00,52.1,39.1,29.94,NW,325,13.0,21.0,61,0.00,,-RA,0.00,12.00,VWS V14.01,2013-05-26 23:42:00,
2013-05-26 19:45:00,52.1,39.1,29.94,NW,325,13.0,21.0,61,0.00,,RA,0.00,12.00,VWS V14.01,2013-05-26 23:45:00,
2013-05-26 19:47:00,51.8,38.4,29.95,NNW,345,5.0,6.0,60,0.00,,-RA,0.00,11.00,VWS V14.01,2013-05-26 23:47:00,
2013-05-26 19:50:00,51.8,38.4,29.95,NW,325,5.0,13.0,60,0.00,,RA,0.00,11.00,VWS V14.01,2013-05-26 23:50:00,
2013-05-26 19:53:00,51.7,38.3,29.96,West,277,7.0,10.0,60,0.00,,-RA,0.00,12.00,VWS V14.01,2013-05-26 23:53:00,
2013-05-26 19:55:00,51.7,38.3,29.96,NW,304,7.0,12.0,60,0.00,,RA,0.00,12.00,VWS V14.01,2013-05-26 23:55:00,
2013-05-26 19:58:00,51.6,37.8,29.95,NNW,336,10.0,14.0,59,0.00,,-RA,0.00,9.00,VWS V14.01,2013-05-26 23:58:00,
2013-05-26 20:00:00,51.6,37.8,29.95,North,355,14.0,20.0,59,0.00,,RA,0.00,9.00,VWS V14.01,2013-05-27 00:00:00,
2013-05-26 20:03:00,51.5,38.1,29.97,NW,308,7.0,12.0,60,0.00,,-RA,0.00,7.00,VWS V14.01,2013-05-27 00:03:00,
2013-05-26 20:05:00,51.5,38.1,29.97,NW,310,12.0,15.0,60,0.00,,RA,0.00,7.00,VWS V14.01,2013-05-27 00:05:00,
2013-05-26 20:08:00,51.3,37.9,29.96,WNW,296,7.0,14.0,60,0.00,,-RA,0.00,5.00,VWS V14.01,2013-05-27 00:08:00,
2013-05-26 20:10:00,51.3,37.9,29.96,WNW,302,8.0,15.0,60,0.00,,RA,0.00,5.00,VWS V14.01,2013-05-27 00:10:00,
2013-05-26 20:13:00,51.2,37.8,29.96,NNW,331,10.0,11.0,60,0.00,,-RA,0.00,0.00,VWS V14.01,2013-05-27 00:13:00,
2013-05-26 20:15:00,51.2,37.8,29.96,NW,311,10.0,18.0,60,0.00,,RA,0.00,0.00,VWS V14.01,2013-05-27 00:15:00,
2013-05-26 20:18:00,51.0,37.6,29.96,NW,323,4.0,7.0,60,0.00,,-RA,0.00,0.00,VWS V14.01,2013-05-27 00:18:00,
2013-05-26 20:20:00,51.0,37.6,29.96,WNW,286,7.0,13.0,60,0.00,,RA,0.00,0.00,VWS V14.01,2013-05-27 00:20:00,
2013-05-26 20:23:00,50.9,38.0,29.97,WNW,300,0.0,3.0,61,0.00,,-RA,0.00,0.00,VWS V14.01,2013-05-27 00:23:00,
2013-05-26 20:25:00,50.9,38.0,29.97,WNW,300,2.0,12.0,61,0.00,,RA,0.00,0.00,VWS V14.01,2013-05-27 00:25:00,
2013-05-26 20:28:00,50.7,37.8,29.98,NW,309,12.0,15.0,61,0.00,,-RA,0.00,0.00,VWS V14.01,2013-05-27 00:28:00,
2013-05-26 20:30:00,50.8,37.8,29.98,NNW,339,5.0,17.0,61,0.00,,RA,0.00,0.00,VWS V14.01,2013-05-27 00:30:00,
2013-05-26 20:33:00,50.6,37.7,29.97,WNW,286,7.0,12.0,61,0.00,,-RA,0.00,0.00,VWS V14.01,2013-05-27 00:33:00,
2013-05-26 20:35:00,50.6,37.7,29.96,NW,315,12.0,15.0,61,0.00,,RA,0.00,0.00,VWS V14.01,2013-05-27 00:35:00,
2013-05-26 20:38:00,50.5,38.0,29.98,NW,325,8.0,9.0,62,0.00,,-RA,0.00,0.00,VWS V14.01,2013-05-27 00:38:00,
2013-05-26 20:40:00,50.5,38.0,29.97,NW,312,8.0,12.0,62,0.00,,RA,0.00,0.00,VWS V14.01,2013-05-27 00:40:00,
2013-05-26 20:43:00,50.3,37.8,29.97,NW,315,5.0,10.0,62,0.00,,-RA,0.00,0.00,VWS V14.01,2013-05-27 00:43:00,
2013-05-26 20:45:00,50.3,37.8,29.97,NW,323,5.0,16.0,62,0.00,,RA,0.00,0.00,VWS V14.01,2013-05-27 00:45:00,
2013-05-26 20:48:00,50.1,38.0,29.97,West,260,4.0,6.0,63,0.00,,-RA,0.00,0.00,VWS V14.01,2013-05-27 00:48:00,
2013-05-26 20:50:00,50.1,38.0,29.97,NW,307,5.0,10.0,63,0.00,,RA,0.00,0.00,VWS V14.01,2013-05-27 00:50:00,
2013-05-26 20:53:00,49.9,37.8,29.98,NNE,15,18.0,18.0,63,0.00,,-RA,0.00,0.00,VWS V14.01,2013-05-27 00:53:00,
2013-05-26 20:55:00,49.9,38.2,29.99,NW,306,10.0,15.0,64,0.00,,RA,0.00,0.00,VWS V14.01,2013-05-27 00:55:00,
2013-05-26 20:58:00,50.0,37.9,29.98,NW,306,10.0,13.0,63,0.00,,-RA,0.00,0.00,VWS V14.01,2013-05-27 00:58:00,
2013-05-26 21:00:00,50.0,37.9,29.98,West,280,7.0,18.0,63,0.00,,RA,0.00,0.00,VWS V14.01,2013-05-27 01:00:00,
2013-05-26 21:03:00,50.0,37.9,29.99,WNW,284,8.0,9.0,63,0.00,,-RA,0.00,0.00,VWS V14.01,2013-05-27 01:03:00,
2013-05-26 21:05:00,50.0,37.9,29.99,NNW,342,5.0,16.0,63,0.00,,RA,0.00,0.00,VWS V14.01,2013-05-27 01:05:00,
2013-05-26 21:09:00,50.0,37.5,29.98,NNW,346,20.0,20.0,62,0.00,,-RA,0.00,0.00,VWS V14.01,2013-05-27 01:09:00,
2013-05-26 21:10:00,50.0,37.9,29.98,NW,318,9.0,14.0,63,0.00,,RA,0.00,0.00,VWS V14.01,2013-05-27 01:10:00,
2013-05-26 21:14:00,50.1,37.6,30.00,WNW,287,7.0,16.0,62,0.00,,-RA,0.00,0.00,VWS V14.01,2013-05-27 01:14:00,
2013-05-26 21:15:00,50.1,37.6,29.98,NW,308,13.0,21.0,62,0.00,,RA,0.00,0.00,VWS V14.01,2013-05-27 01:15:00,
2013-05-26 21:19:00,49.9,37.4,29.99,NW,325,5.0,11.0,62,0.00,,-RA,0.00,0.00,VWS V14.01,2013-05-27 01:19:00,
2013-05-26 21:20:00,49.9,37.4,29.99,NW,306,8.0,16.0,62,0.00,,RA,0.00,0.00,VWS V14.01,2013-05-27 01:20:00,
2013-05-26 21:24:00,49.8,37.7,29.99,WNW,297,3.0,8.0,63,0.00,,-RA,0.00,0.00,VWS V14.01,2013-05-27 01:24:00,
2013-05-26 21:25:00,49.8,37.7,29.99,NW,323,6.0,11.0,63,0.00,,RA,0.00,0.00,VWS V14.01,2013-05-27 01:25:00,
2013-05-26 21:29:00,49.5,37.8,30.00,NW,309,2.0,5.0,64,0.00,,-RA,0.00,0.00,VWS V14.01,2013-05-27 01:29:00,
2013-05-26 21:30:00,49.5,37.4,30.01,WNW,290,4.0,8.0,63,0.00,,RA,0.00,0.00,VWS V14.01,2013-05-27 01:30:00,
2013-05-26 21:34:00,49.2,37.6,30.00,NW,325,15.0,15.0,64,0.00,,-RA,0.00,0.00,VWS V14.01,2013-05-27 01:34:00,
2013-05-26 21:35:00,49.2,38.0,30.00,NW,319,10.0,12.0,65,0.00,,RA,0.00,0.00,VWS V14.01,2013-05-27 01:35:00,
2013-05-26 21:39:00,49.2,37.6,30.01,WNW,293,5.0,11.0,64,0.00,,-RA,0.00,0.00,VWS V14.01,2013-05-27 01:39:00,
2013-05-26 21:40:00,49.3,37.7,30.00,NNW,332,7.0,15.0,64,0.00,,RA,0.00,0.00,VWS V14.01,2013-05-27 01:40:00,
2013-05-26 21:44:00,49.0,37.8,30.00,NW,318,5.0,10.0,65,0.00,,-RA,0.00,0.00,VWS V14.01,2013-05-27 01:44:00,
2013-05-26 21:45:00,49.1,37.9,30.00,West,265,6.0,11.0,65,0.00,,RA,0.00,0.00,VWS V14.01,2013-05-27 01:45:00,
2013-05-26 21:49:00,48.8,37.6,30.00,WNW,295,5.0,6.0,65,0.00,,-RA,0.00,0.00,VWS V14.01,2013-05-27 01:49:00,
2013-05-26 21:50:00,48.9,37.7,30.00,NW,317,4.0,10.0,65,0.00,,RA,0.00,0.00,VWS V14.01,2013-05-27 01:50:00,
2013-05-26 21:54:00,48.7,37.9,30.01,WNW,300,4.0,8.0,66,0.00,,-RA,0.00,0.00,VWS V14.01,2013-05-27 01:54:00,
2013-05-26 21:55:00,48.7,37.5,30.02,West,260,4.0,6.0,65,0.00,,RA,0.00,0.00,VWS V14.01,2013-05-27 01:55:00,
2013-05-26 21:59:00,48.6,37.8,30.01,NW,304,3.0,7.0,66,0.00,,-RA,0.00,0.00,VWS V14.01,2013-05-27 01:59:00,
2013-05-26 22:00:00,48.6,37.8,30.01,NW,313,7.0,10.0,66,0.00,,RA,0.00,0.00,VWS V14.01,2013-05-27 02:00:00,
2013-05-26 22:04:00,48.6,37.8,30.02,NW,311,5.0,7.0,66,0.00,,-RA,0.00,0.00,VWS V14.01,2013-05-27 02:04:00,
2013-05-26 22:05:00,48.6,38.5,30.01,WNW,283,5.0,10.0,68,0.00,,RA,0.00,0.00,VWS V14.01,2013-05-27 02:05:00,
2013-05-26 22:09:00,48.3,37.5,30.00,WNW,302,4.0,6.0,66,0.00,,-RA,0.00,0.00,VWS V14.01,2013-05-27 02:09:00,
2013-05-26 22:10:00,48.5,37.7,30.00,WNW,295,5.0,7.0,66,0.00,,RA,0.00,0.00,VWS V14.01,2013-05-27 02:10:00,
2013-05-26 22:14:00,48.2,37.8,30.00,WNW,300,3.0,5.0,67,0.00,,-RA,0.00,0.00,VWS V14.01,2013-05-27 02:14:00,
2013-05-26 22:15:00,48.2,37.8,30.01,WNW,299,4.0,6.0,67,0.00,,RA,0.00,0.00,VWS V14.01,2013-05-27 02:15:00,
2013-05-26 22:19:00,48.0,37.6,30.01,WNW,300,1.0,3.0,67,0.00,,-RA,0.00,0.00,VWS V14.01,2013-05-27 02:19:00,
2013-05-26 22:20:00,48.1,37.7,30.02,WNW,300,2.0,5.0,67,0.00,,RA,0.00,0.00,VWS V14.01,2013-05-27 02:20:00,
2013-05-26 22:24:00,47.7,37.7,30.01,WNW,301,1.0,4.0,68,0.00,,-RA,0.00,0.00,VWS V14.01,2013-05-27 02:24:00,
2013-05-26 22:25:00,47.8,37.8,30.01,WNW,300,2.0,3.0,68,0.00,,RA,0.00,0.00,VWS V14.01,2013-05-27 02:25:00,
2013-05-26 22:29:00,47.5,37.8,30.02,WNW,300,1.0,2.0,69,0.00,,-RA,0.00,0.00,VWS V14.01,2013-05-27 02:29:00,
2013-05-26 22:30:00,47.6,38.0,30.01,WNW,300,1.0,4.0,69,0.00,,RA,0.00,0.00,VWS V14.01,2013-05-27 02:30:00,
2013-05-26 22:34:00,47.2,37.9,30.01,WNW,300,1.0,3.0,70,0.00,,-RA,0.00,0.00,VWS V14.01,2013-05-27 02:34:00,
2013-05-26 22:35:00,47.3,38.0,30.01,WNW,300,2.0,3.0,70,0.00,,RA,0.00,0.00,VWS V14.01,2013-05-27 02:35:00,
2013-05-26 22:40:00,46.7,38.2,30.03,WNW,300,4.0,4.0,72,0.00,,-RA,0.00,0.00,VWS V14.01,2013-05-27 02:40:00,
2013-05-26 22:45:00,46.3,38.1,30.02,WNW,300,0.0,2.0,73,0.00,,-RA,0.00,0.00,VWS V14.01,2013-05-27 02:45:00,
2013-05-26 22:50:00,45.9,38.4,30.01,WNW,300,2.0,4.0,75,0.00,,-RA,0.00,0.00,VWS V14.01,2013-05-27 02:50:00,
2013-05-26 22:55:00,45.6,38.5,30.02,WNW,300,1.0,2.0,76,0.00,,-RA,0.00,0.00,VWS V14.01,2013-05-27 02:55:00,
2013-05-26 23:00:00,45.2,38.1,30.02,WNW,300,3.0,4.0,76,0.00,,-RA,0.00,0.00,VWS V14.01,2013-05-27 03:00:00,
2013-05-26 23:05:00,45.0,38.2,30.03,WNW,292,3.0,6.0,77,0.00,,-RA,0.00,0.00,VWS V14.01,2013-05-27 03:05:00,
2013-05-26 23:10:00,44.8,38.0,30.02,West,266,3.0,4.0,77,0.00,,-RA,0.00,0.00,VWS V14.01,2013-05-27 03:10:00,
2013-05-26 23:15:00,44.8,38.4,30.02,West,281,2.0,5.0,78,0.00,,-RA,0.00,0.00,VWS V14.01,2013-05-27 03:15:00,
2013-05-26 23:20:00,44.8,38.4,30.03,West,281,3.0,4.0,78,0.00,,-RA,0.00,0.00,VWS V14.01,2013-05-27 03:20:00,
2013-05-26 23:25:00,44.7,38.3,30.02,West,281,2.0,3.0,78,0.00,,-RA,0.00,0.00,VWS V14.01,2013-05-27 03:25:00,
2013-05-26 23:30:00,44.5,38.1,30.03,West,281,4.0,4.0,78,0.00,,-RA,0.00,0.00,VWS V14.01,2013-05-27 03:30:00,
2013-05-26 23:35:00,44.3,38.2,30.03,West,281,4.0,4.0,79,0.00,,-RA,0.00,0.00,VWS V14.01,2013-05-27 03:35:00,
2013-05-26 23:40:00,44.1,38.0,30.03,West,281,3.0,4.0,79,0.00,,-RA,0.00,0.00,VWS V14.01,2013-05-27 03:40:00,
2013-05-26 23:45:00,44.1,38.3,30.03,West,281,3.0,6.0,80,0.00,,RA,0.00,0.00,VWS V14.01,2013-05-27 03:45:00,
2013-05-26 23:46:00,44.0,38.2,30.05,West,270,2.0,7.0,80,0.00,,-RA,0.00,0.00,VWS V14.01,2013-05-27 03:46:00,
2013-05-26 23:50:00,43.9,38.1,30.04,West,267,4.0,7.0,80,0.00,,RA,0.00,0.00,VWS V14.01,2013-05-27 03:50:00,
2013-05-26 23:51:00,43.8,38.4,30.03,West,269,3.0,4.0,81,0.00,,-RA,0.00,0.00,VWS V14.01,2013-05-27 03:51:00,
2013-05-26 23:55:00,43.8,38.4,30.03,West,270,2.0,4.0,81,0.00,,RA,0.00,0.00,VWS V14.01,2013-05-27 03:55:00,
2013-05-26 23:56:00,43.7,38.3,30.03,West,264,5.0,6.0,81,0.00,,-RA,0.00,0.00,VWS V14.01,2013-05-27 03:56:00,